Location: Milevsko
(49.4500°N, 14.3670°E)
Time: 20:40:36
(UTC+02:00)

ISS - Pass Details

Date: 20 July 2018
Orbit: 402 x 408 km, 51.6° (Epoch: 17 July)

Event Time Altitude Azimuth Distance (km) Brightness Sun altitude
Rises 03:50:44 0° 289° (WNW) 2,331 -0.2 -11.2°
Reaches altitude 10° 03:52:52 10° 283° (WNW) 1,469 -1.3 -11.0°
Maximum altitude 03:56:02 45° 209° (SSW) 565 -3.6 -10.7°
Drops below altitude 10° 03:59:11 10° 135° (SE) 1,464 -1.1 -10.3°
Sets 04:01:19 0° 129° (SE) 2,322 0.0 -10.1°
